Location: Unspecified
(0.0000°N, 0.0000°E)
Time: 04:41:18
(UTC+00:00)

A-11 Canister half - Pass Details

Date: 18 April 2026
Orbit: 1523 x 1685 km, 47.3° (Epoch: 13 May)

Event Time Altitude Azimuth Distance (km) Brightness Sun altitude
Rises 19:00:25 0° 191° (S) 4,713 11.6 -15.0°
Reaches altitude 10° 19:04:51 10° 173° (S) 3,754 10.9 -16.1°
Maximum altitude 19:10:54 18° 133° (SE) 3,175 10.2 -17.6°
Enters shadow 19:11:18 18° 130° (SE) 3,180 10.1 -17.7°
Drops below altitude 10° 19:17:00 10° 93° (E) 3,832 - -19.1°
Sets 19:21:31 0° 76° (ENE) 4,847 - -20.2°
